World > North America > United States > South Dakota > Alcester

Alcester, SD Hourly Weather Conditions

Feedback E-mail the Weather

Quick WX

Alcester, SD Weather Maps

°F °C°F °C
Alcester Weather Map
UTC Time: 2/8/2023, 16:30
Your Time:

Alcester, SD Regional Weather

Expires:202302081700;;012544
ASUS43 KFSD 081610
RWRFSD

WEATHER ROUNDUP FOR SE SOUTH DAKOTA/SW MINNESOTA/NW IOWA
NATIONAL WEATHER SERVICE SIOUX FALLS SD
1000 AM CST WED FEB 08 2023

NOTE: "FAIR" INDICATES FEW OR NO CLOUDS BELOW 12,000 FEET WITH NO
SIGNIFICANT WEATHER AND OR OBSTRUCTIONS TO VISIBILITY.



IAZ001>003-012>014-020>022-031-032-NEZ013-014-SDZ071-081700-
NORTHWEST IOWA
  
CITY           SKY/WX    TMP DP  RH WIND       PRES   REMARKS
CHEROKEE       FAIR      31  31 100 S6        30.09F WCI  25 TC  -1   
DENISON        FAIR      37  34  87 S12       30.12  TC   3           
ESTHERVILLE    FAIR      24  21  88 S9        30.08F WCI  14 TC  -4   
LE MARS        FAIR      30  30 100 S9        30.06F WCI  22 TC  -1   
MAURICE        FAIR      28  27  93 S13       30.06F WCI  18 TC  -2   
SHELDON        FAIR      27  27 100 S7        30.05F WCI  19 TC  -3   
SIOUX CITY     FAIR      30  27  88 E6        30.08F WCI  24 TC  -1   
SPENCER        FAIR      30  24  78 SW3       30.08F TC  -1           
STORM LAKE     FAIR      32  30  93 S7        30.08F WCI  26 TC   0   
$$
 
ABBREVIATIONS USED IN REMARKS
   TC - TEMPERATURE IN CELSIUS
  WCI - WIND CHILL INDEX
   HX - HEAT INDEX
  VSB - VISIBILITY

  

SKY/WX - Weather  TMP - Temperature  DP - Dew Point  RH - Humidity
WIND - Wind Direction/Speed PRES - Barometric Pressure VSB - Visibility
WCI - Wind Chill Index E13G22 Wind - East Wind 13 mph/Gusts of 22 mph

Trending Headlines

Trending Entertainment Headlines

Alcester Radar Loop

Use the map search tool if you want to place a location marker on the radar map...

Alcester Quick Facts

National Two Day Weather Forecast


E-mail the Alcester Weather Forecast

Voice your opinion or tell us about page issues...